Home > Weather > Lausanne > Past weeks

Flag for Switzerland Weather for the Past 2 Weeks in Lausanne, Vaud, Switzerland

Now
50 °F

Overcast.


Feels Like: 45 °F
Forecast: 40 / 49 °F
Wind: 13 mph from Southeast

Location: Aigle

Current Time: Feb 8, 2016 at 2:18:39 PM

Latest Report: Feb 8, 2016 at 1:00 PM


Visibility: 19 mi

Pressure: 29.88 "Hg

Humidity: 57%

Dew point: 35 °F

Location of LausanneLocation

Historic Weather in Lausanne — Graph

°F

Lausanne Temperature Yesterday

Maximum temperature yesterday: 57 °F (at 8:00 AM)
Minimum temperature yesterday: 40 °F (at 10:00 PM)
Average temperature yesterday: 46 °F

High & Low Weather Summary for the Past Weeks

 TemperatureHumidityPressure
High57 °F (Feb 1, 2:00 PM)100% (Feb 5, 9:00 AM)30.62 "Hg (Feb 5, 9:00 AM)
Low34 °F (Jan 26, 8:00 AM)32% (Feb 7, 8:00 AM)29.59 "Hg (Feb 7, 8:00 AM)
Average44 °F80%30.30 "Hg
* Reported Jan 24 1:00 PM — Feb 8 1:00 PM, Lausanne, Weather by CustomWeather, © 2016

Note: Actual official high and low records may vary slightly from our data, if they occured in-between our weather recording intervals... More about our weather records

Advertising

Lausanne Weather History for the Previous 24 Hours

 ConditionsComfort  
Time TempWeatherWind HumidityBarometerVisibility
1:00 PM
Mon, Feb 8
50 °FOvercast.13 mph57%29.88 "Hg19 mi
12:00 PM49 °FCool.17 mph56%29.88 "HgN/A
11:00 AM45 °FCool.21 mph68%29.92 "HgN/A
10:00 AM43 °FOvercast.17 mph70%29.96 "Hg22 mi
9:00 AM42 °FQuite cool.14 mph71%29.98 "HgN/A
8:00 AM42 °FQuite cool.20 mph72%29.98 "HgN/A
7:00 AM40 °FOvercast.6 mph78%29.99 "Hg16 mi
6:00 AM41 °FQuite cool.10 mph77%29.99 "HgN/A
5:00 AM39 °FChilly.10 mph82%30.00 "HgN/A
3:00 AM35 °FChilly.2 mph96%30.04 "HgN/A
2:00 AM35 °FChilly.2 mph95%30.03 "HgN/A
12:00 AM38 °FChilly.3 mph96%30.05 "HgN/A
11:00 PM
Sun, Feb 7
41 °FQuite cool.1 mph89%30.05 "HgN/A
10:00 PM40 °FQuite cool.3 mph91%30.03 "HgN/A
9:00 PM41 °FQuite cool.3 mph92%30.03 "HgN/A
8:00 PM41 °FQuite cool.6 mph89%30.01 "HgN/A
7:00 PM41 °FOvercast.6 mph87%29.99 "Hg9 mi
6:00 PM41 °FQuite cool.2 mph90%29.96 "HgN/A
5:00 PM42 °FQuite cool.3 mph88%29.95 "HgN/A
4:00 PM42 °FLight rain. Overcast.1 mph85%29.94 "Hg6 mi
3:00 PM41 °FQuite cool.8 mph86%29.92 "HgN/A
2:00 PM41 °FQuite cool.15 mph86%29.89 "HgN/A
Weather by CustomWeather, © 2016

See weather overviewHow to use our weather pages